Location: Bemmer
(51.5498°N, 5.6249°E)
Time: 02:53:44
(UTC+00:00)

COSMOS 2428 - Pass Details

Date: 03 March 2021
Orbit: 845 x 858 km, 70.9° (Epoch: 13 April)

Event Time Altitude Azimuth Distance (km) Brightness Sun altitude
Rises 21:01:50 0° 228° (SW) 3,398 6.0 -33.3°
Reaches altitude 10° 21:04:22 10° 234° (SW) 2,467 5.3 -33.6°
Enters shadow 21:07:10 28° 250° (WSW) 1,541 4.2 -33.9°
Exits shadow 21:13:53 18° 18° (NNE) 1,969 4.8 -34.7°
Drops below altitude 10° 21:15:22 10° 24° (NNE) 2,487 5.3 -34.9°
Sets 21:17:56 0° 30° (NNE) 3,428 6.0 -35.2°
